When you browse on this site, cookies collect data to enhance your experience and personalize the content and advertising you see.
Visit our Privacy Policy to learn more. By continuing to use the site, you agree to this use of cookies and data.
  • în România
  • Lista ţărilor
  • Pe 7 zile
  • Temperatura apei
  • Meteo pe hartă
  • Widget-uri
  • user-avatar
    Intrare

    Meteo pe oră la Gitega

    Astăzi, 22 Septembrie, Duminică

    Timp Temperatura Precipitaţii Vânt Presiune Umiditate
    00:00 +21°C° 0 mm 1 m/s 623 mmHg 52%
    01:00 +20°C° 0 mm 1 m/s 622 mmHg 55%
    02:00 +20°C° 0 mm 1 m/s 622 mmHg 57%
    03:00 +19°C° 0 mm 1 m/s 622 mmHg 58%
    04:00 +17°C° 0 mm 0 m/s 622 mmHg 60%
    05:00 +16°C° 0 mm 0 m/s 622 mmHg 61%
    06:00 +19°C° 0 mm 0 m/s 623 mmHg 56%
    07:00 +21°C° 0 mm 0 m/s 624 mmHg 50%
    08:00 +23°C° 0 mm 0 m/s 626 mmHg 44%
    09:00 +26°C° 0 mm 1 m/s 626 mmHg 41%
    10:00 +27°C° 0 mm 2 m/s 626 mmHg 38%
    11:00 +28°C° 0 mm 3 m/s 626 mmHg 35%
    12:00 +28°C° 0 mm 3 m/s 625 mmHg 35%
    13:00 +29°C° 0 mm 2 m/s 624 mmHg 34%
    14:00 +29°C° 0 mm 2 m/s 624 mmHg 33%
    15:00 +29°C° 0 mm 1 m/s 624 mmHg 32%
    16:00 +29°C° 0 mm 1 m/s 624 mmHg 31%
    17:00 +29°C° 0 mm 1 m/s 624 mmHg 31%
    18:00 +27°C° 0 mm 1 m/s 624 mmHg 35%
    19:00 +25°C° 0 mm 1 m/s 624 mmHg 40%
    20:00 +24°C° 0 mm 1 m/s 624 mmHg 44%
    21:00 +23°C° 0 mm 1 m/s 624 mmHg 46%
    22:00 +23°C° 0 mm 1 m/s 623 mmHg 48%
    23:00 +22°C° 0 mm 1 m/s 623 mmHg 51%

    Mâine, 23 Septembrie, Luni

    Timp Temperatura Precipitaţii Vânt Presiune Umiditate
    00:00 +21°C° 0 mm 1 m/s 623 mmHg 52%
    01:00 +21°C° 0 mm 1 m/s 622 mmHg 54%
    02:00 +20°C° 0 mm 1 m/s 622 mmHg 56%
    03:00 +20°C° 0 mm 1 m/s 622 mmHg 57%
    04:00 +20°C° 0 mm 1 m/s 622 mmHg 57%
    05:00 +19°C° 0 mm 1 m/s 622 mmHg 58%
    06:00 +21°C° 0 mm 1 m/s 623 mmHg 52%
    07:00 +23°C° 0 mm 2 m/s 625 mmHg 47%
    08:00 +25°C° 0 mm 3 m/s 626 mmHg 41%
    09:00 +27°C° 0 mm 3 m/s 626 mmHg 38%
    10:00 +28°C° 0 mm 3 m/s 626 mmHg 35%
    11:00 +29°C° 0 mm 3 m/s 626 mmHg 32%
    12:00 +30°C° 0 mm 3 m/s 626 mmHg 30%
    13:00 +30°C° 0 mm 3 m/s 625 mmHg 28%
    14:00 +30°C° 0 mm 3 m/s 624 mmHg 27%
    15:00 +30°C° 0 mm 3 m/s 624 mmHg 29%
    16:00 +29°C° 0 mm 3 m/s 624 mmHg 31%
    17:00 +28°C° 0 mm 3 m/s 623 mmHg 33%
    18:00 +26°C° 0 mm 2 m/s 623 mmHg 38%
    19:00 +25°C° 0 mm 1 m/s 623 mmHg 43%
    20:00 +23°C° 0 mm 1 m/s 623 mmHg 48%
    21:00 +22°C° 0 mm 1 m/s 623 mmHg 49%
    22:00 +22°C° 0 mm 1 m/s 623 mmHg 50%
    23:00 +22°C° 0 mm 1 m/s 623 mmHg 51%

    Poimâine, 24 Septembrie, Marţi

    Timp Temperatura Precipitaţii Vânt Presiune Umiditate
    00:00 +22°C° 0 mm 1 m/s 623 mmHg 51%
    01:00 +22°C° 0 mm 1 m/s 622 mmHg 50%
    02:00 +20°C° 0 mm 0 m/s 622 mmHg 50%
    03:00 +19°C° 0 mm 0 m/s 622 mmHg 51%
    04:00 +20°C° 0 mm 1 m/s 622 mmHg 53%
    05:00 +20°C° 0 mm 1 m/s 622 mmHg 55%
    06:00 +20°C° 0 mm 2 m/s 623 mmHg 52%
    07:00 +21°C° 0 mm 3 m/s 624 mmHg 49%
    08:00 +23°C° 0 mm 4 m/s 625 mmHg 46%
    09:00 +26°C° 0 mm 4 m/s 625 mmHg 40%
    10:00 +28°C° 0 mm 4 m/s 626 mmHg 35%
    11:00 +30°C° 0 mm 4 m/s 626 mmHg 29%
    12:00 +30°C° 0 mm 3 m/s 625 mmHg 27%
    13:00 +31°C° 0 mm 3 m/s 625 mmHg 26%
    14:00 +31°C° 0 mm 3 m/s 624 mmHg 24%
    15:00 +30°C° 0 mm 3 m/s 624 mmHg 26%
    16:00 +29°C° 0 mm 2 m/s 623 mmHg 28%
    17:00 +28°C° 0 mm 2 m/s 623 mmHg 31%
    18:00 +27°C° 0 mm 2 m/s 623 mmHg 34%
    19:00 +26°C° 0 mm 1 m/s 623 mmHg 37%
    20:00 +24°C° 0 mm 1 m/s 623 mmHg 40%
    21:00 +24°C° 0 mm 1 m/s 623 mmHg 42%
    22:00 +24°C° 0 mm 1 m/s 623 mmHg 43%
    23:00 +23°C° 0 mm 1 m/s 623 mmHg 44%

    25 Septembrie, Miercuri

    Timp Temperatura Precipitaţii Vânt Presiune Umiditate
    00:00 +23°C° 0 mm 1 m/s 622 mmHg 45%
    01:00 +22°C° 0 mm 1 m/s 622 mmHg 47%
    02:00 +22°C° 0 mm 1 m/s 621 mmHg 48%
    03:00 +21°C° 0 mm 1 m/s 622 mmHg 49%
    04:00 +21°C° 0 mm 1 m/s 622 mmHg 50%
    05:00 +20°C° 0 mm 1 m/s 622 mmHg 52%
    06:00 +21°C° 0 mm 2 m/s 623 mmHg 47%
    07:00 +22°C° 0 mm 3 m/s 624 mmHg 42%
    08:00 +23°C° 0 mm 4 m/s 626 mmHg 37%
    09:00 +26°C° 0 mm 4 m/s 626 mmHg 34%
    10:00 +27°C° 0 mm 4 m/s 626 mmHg 30%
    11:00 +29°C° 0 mm 4 m/s 626 mmHg 26%
    12:00 +30°C° 0 mm 4 m/s 626 mmHg 25%
    13:00 +32°C° 0 mm 4 m/s 625 mmHg 23%
    14:00 +32°C° 0 mm 4 m/s 624 mmHg 21%
    15:00 +32°C° 0 mm 4 m/s 624 mmHg 22%
    16:00 +30°C° 0 mm 4 m/s 624 mmHg 23%
    17:00 +29°C° 0 mm 3 m/s 623 mmHg 25%
    18:00 +27°C° 0 mm 3 m/s 623 mmHg 28%
    19:00 +26°C° 0 mm 2 m/s 623 mmHg 32%
    20:00 +24°C° 0 mm 1 m/s 623 mmHg 36%
    21:00 +23°C° 0 mm 1 m/s 623 mmHg 38%
    22:00 +22°C° 0 mm 1 m/s 622 mmHg 40%
    23:00 +21°C° 0 mm 1 m/s 622 mmHg 42%

    26 Septembrie, Joi

    Timp Temperatura Precipitaţii Vânt Presiune Umiditate
    00:00 +21°C° 0 mm 1 m/s 622 mmHg 43%
    01:00 +21°C° 0 mm 1 m/s 622 mmHg 44%
    02:00 +20°C° 0 mm 1 m/s 621 mmHg 46%
    03:00 +20°C° 0 mm 1 m/s 622 mmHg 45%
    04:00 +21°C° 0 mm 1 m/s 622 mmHg 45%
    05:00 +21°C° 0 mm 1 m/s 623 mmHg 44%
    06:00 +20°C° 0 mm 2 m/s 624 mmHg 43%
    07:00 +21°C° 0 mm 4 m/s 625 mmHg 42%
    08:00 +22°C° 0 mm 5 m/s 626 mmHg 41%
    09:00 +25°C° 0 mm 4 m/s 626 mmHg 39%
    10:00 +26°C° 0 mm 4 m/s 626 mmHg 37%
    11:00 +28°C° 0 mm 4 m/s 626 mmHg 36%
    12:00 +28°C° 0 mm 4 m/s 625 mmHg 35%
    13:00 +28°C° 0 mm 4 m/s 624 mmHg 35%
    14:00 +28°C° 0 mm 4 m/s 624 mmHg 34%
    15:00 +28°C° 0 mm 3 m/s 623 mmHg 35%
    16:00 +27°C° 0 mm 3 m/s 623 mmHg 36%
    17:00 +27°C° 0 mm 3 m/s 623 mmHg 37%
    18:00 +26°C° 0 mm 2 m/s 623 mmHg 40%
    19:00 +24°C° 0 mm 2 m/s 623 mmHg 44%
    20:00 +23°C° 0 mm 1 m/s 624 mmHg 47%
    21:00 +23°C° 0 mm 1 m/s 624 mmHg 48%
    22:00 +23°C° 0 mm 1 m/s 624 mmHg 48%
    23:00 +23°C° 0 mm 1 m/s 624 mmHg 49%

    27 Septembrie, Vineri

    Timp Temperatura Precipitaţii Vânt Presiune Umiditate
    00:00 +22°C° 0 mm 1 m/s 624 mmHg 51%
    01:00 +21°C° 0 mm 1 m/s 623 mmHg 53%
    02:00 +21°C° 0 mm 1 m/s 622 mmHg 55%
    03:00 +21°C° 0 mm 1 m/s 623 mmHg 56%
    04:00 +21°C° 0 mm 1 m/s 623 mmHg 56%
    05:00 +20°C° 0 mm 1 m/s 623 mmHg 57%
    06:00 +20°C° 0 mm 2 m/s 624 mmHg 57%
    07:00 +20°C° 0 mm 3 m/s 625 mmHg 58%
    08:00 +21°C° 0 mm 4 m/s 625 mmHg 58%
    09:00 +22°C° 0.1 mm 4 m/s 625 mmHg 54%
    10:00 +23°C° 0.1 mm 4 m/s 625 mmHg 51%
    11:00 +26°C° 0.1 mm 4 m/s 625 mmHg 48%
    12:00 +26°C° 0.1 mm 4 m/s 625 mmHg 46%
    13:00 +26°C° 0.1 mm 4 m/s 624 mmHg 45%
    14:00 +26°C° 0.1 mm 4 m/s 623 mmHg 44%
    15:00 +26°C° 0 mm 4 m/s 623 mmHg 43%
    16:00 +26°C° 0 mm 4 m/s 623 mmHg 43%
    17:00 +26°C° 0 mm 3 m/s 623 mmHg 43%
    18:00 +25°C° 0 mm 3 m/s 623 mmHg 46%
    19:00 +24°C° 0 mm 2 m/s 623 mmHg 48%
    20:00 +23°C° 0 mm 1 m/s 623 mmHg 51%
    21:00 +22°C° 0 mm 1 m/s 623 mmHg 54%
    22:00 +21°C° 0 mm 1 m/s 623 mmHg 57%
    23:00 +21°C° 0 mm 1 m/s 623 mmHg 60%
    Arată mai mult